Simultaneous Nadir Overpasses (SNOs) Predictions

Prediction of SNOs between METOP-C and LANDSAT-8 Satellite Orbit:

Table of predicted SNOs for the next 14.0 days since TLE Epoch: 2/22/2025
Index Date (METOP-C) Time (METOP-C) Lat,Lon (METOP-C) SZA (METOP-C ) Date (LANDSAT-8) Time (LANDSAT-8) Lat,Lon (LANDSAT-8) SZA (LANDSAT-8 ) Distance(km) Time Diff (sec)
1 02/22/2025 05:09:00 -81.13, -37.50 87.11 02/22/2025 05:09:12 -81.12, -37.67 87.13 3.00 12
2 02/22/2025 05:59:39 81.15, 130.49 92.96 02/22/2025 05:58:37 81.15, 130.41 92.93 1.30 62
3 02/25/2025 00:43:20 -81.13, 28.83 88.15 02/25/2025 00:43:24 -81.13, 28.83 88.15 0.22 4
4 02/25/2025 01:33:59 81.15,-163.23 91.92 02/25/2025 01:32:49 81.15,-163.12 91.90 2.03 70
5 02/27/2025 19:26:59 81.11, -72.66 90.76 02/27/2025 19:28:08 81.11, -72.57 90.80 1.62 69
6 02/27/2025 20:17:38 -81.14, 95.43 89.17 02/27/2025 20:17:34 -81.13, 95.40 89.17 0.58 4
7 03/02/2025 15:01:17 81.12, -5.84 89.76 03/02/2025 15:02:18 81.12, -5.96 89.77 1.98 61
8 03/02/2025 15:51:58 -81.13, 161.55 90.26 03/02/2025 15:51:45 -81.12, 161.67 90.25 2.09 13
9 03/05/2025 10:35:36 81.12, 60.50 88.68 03/05/2025 10:36:28 81.12, 60.37 88.68 2.31 52



Historial Predications of SNOs between METOP-C and LANDSAT-8
